Regional Weather Roundup
Issued by NWS Sioux Falls, SD

Home | Current Version | Previous Version | Graphics & Text | Print | Product List | Glossary Off
Versions: 1 2 3 4 5 6 7 8 9 10 11 12 13 14 15 16 17 18 19 20 21 22 23 24 25 26 27 28 29 30 31 32 33 34 35 36 37 38 39 40 41 42 43 44 45 46 47 48 49 50

000
ASUS43 KFSD 240610
RWRFSD

WEATHER ROUNDUP FOR SE SOUTH DAKOTA/SW MINNESOTA/NW IOWA
NATIONAL WEATHER SERVICE SIOUX FALLS SD
100 AM CDT FRI OCT 24 2014

NOTE: "FAIR" INDICATES FEW OR NO CLOUDS BELOW 12,000 FEET WITH NO
SIGNIFICANT WEATHER AND OR OBSTRUCTIONS TO VISIBILITY.


SDZ038>040-050-052>070-240700-
SOUTHEAST SOUTH DAKOTA

CITY           SKY/WX    TMP DP  RH WIND       PRES   REMARKS
CHAMBERLAIN    MOCLDY    47  41  79 SW6       29.85S
6HR MIN TEMP:  46; 6HR MAX TEMP:  56;

HURON          CLOUDY    49  45  86 SE6       29.84F
6HR MIN TEMP:  48; 6HR MAX TEMP:  58;

MADISON        FAIR      50  50 100 SE5       29.89F
MITCHELL       MOCLDY    52  49  89 S7        29.85F
6HR MIN TEMP:  52; 6HR MAX TEMP:  63;

SIOUX FALLS    PTCLDY    56  48  74 S10       29.90F
6HR MIN TEMP:  56; 6HR MAX TEMP:  60;

WINNER         FAIR      59  34  39 W9        29.87S
YANKTON        PTCLDY    61  54  77 S10       29.89F
$$

MNZ071-072-080-081-089-090-097-098-240700-
SOUTHWEST MINNESOTA

CITY           SKY/WX    TMP DP  RH WIND       PRES   REMARKS
FAIRMONT       PTCLDY    46  37  71 S7        29.97S
JACKSON        MOCLDY    50  41  71 S7        29.97R
LUVERNE        PTCLDY    50  45  81 CALM      29.93F
MARSHALL       MOCLDY    54  43  66 SW16      29.88F
6HR MIN TEMP:  52; 6HR MAX TEMP:  59;

MONTEVIDEO     CLOUDY    52  45  76 S6        29.89F
PIPESTONE      PTCLDY    54  46  76 S8        29.92F
REDWOOD FALLS  MOCLDY    49  42  77 S7        29.93R
TRACY          MOCLDY    57  46  66 SW16      29.92F
WINDOM         MOCLDY    50  43  76 S6        29.96R
WORTHINGTON    PTCLDY    52  43  71 S10       29.96S
$$

IAZ001>003-012>014-020>022-031-032-NEZ013-014-SDZ071-240700-
NORTHWEST IOWA

CITY           SKY/WX    TMP DP  RH WIND       PRES   REMARKS
CHEROKEE       MOCLDY    48  46  93 S5        29.96F
DENISON        PTCLDY    52  46  82 SW5       29.98F
ESTHERVILLE    MOCLDY    44  40  85 S8        29.98R
LE MARS        PTCLDY    55  48  76 S8        29.94F
ORANGE CITY    MOCLDY    54  45  71 S7        29.94F
SHELDON        MOCLDY    52  46  82 S6        29.94S
SIOUX CITY     CLEAR     50  47  89 E6        29.95F
6HR MIN TEMP:  49; 6HR MAX TEMP:  59;

SPENCER        MOCLDY    49  42  77 SE5       29.97S
6HR MIN TEMP:  45; 6HR MAX TEMP:  53;

STORM LAKE     MOCLDY    50  43  76 S9        29.99S
$$

ABBREVIATIONS USED IN REMARKS
   TC - TEMPERATURE IN CELSIUS
  WCI - WIND CHILL INDEX
   HX - HEAT INDEX
  VSB - VISIBILITY




USA.gov is the U.S. government's official web portal to all federal, state and local government web resources and services.